EW9532 Weather Reports


time (UTC)temp
C
wind
direction
speed
KPH
gust
KPH
rain 1hr
cm
rain 24hr
cm
rain mn
cm
humidity
%
barometer
mb
20260509113047 22 348 0.0 3.2 0.18 0.30 0.18 94 1011.2
20260509112649 23 274 0.0 3.2 0.15 0.05 0.15 94 1011.1
20260509112148 23 310 0.0 3.2 0.08 0.05 0.08 96 1010.9
20260509111904 23 84 0.0 3.2 0.03 0.05 0.03 96 1010.8
20260509111549 23 288 0.0 1.6 0.03 0.15 0.03 96 1011.1
20260509111135 23 211 0.0 3.2 0.03 0.08 0.03 97 1010.9
20260509110631 23 135 0.0 0.0 0.00 0.10 0.00 97 1010.8
20260509110357 23 135 0.0 0.0 0.00 0.13 0.00 97 1010.7
20260509110052 23 0 0.0 0.0 0.00 0.13 0.00 96 1010.9
20260509105631 23 135 0.0 0.0 0.00 0.15 0.00 97 1010.5
20260509105131 24 135 0.0 0.0 0.00 0.15 0.00 97 1010.3
20260509104631 24 135 0.0 0.0 0.00 0.15 0.00 97 1010.2
20260509104549 23 0 0.0 0.0 0.00 0.23 0.00 96 1010.4
20260509104130 24 135 0.0 0.0 0.00 0.15 0.00 97 1010.0
20260509103630 23 135 0.0 0.0 0.00 0.15 0.00 97 1009.8
20260509103131 23 135 0.0 0.0 0.00 0.15 0.00 97 1009.5
20260509103050 23 0 0.0 0.0 0.00 0.23 0.00 96 1009.7
20260509102643 23 135 0.0 0.0 0.00 0.15 0.00 97 1009.3
20260509102143 23 135 0.0 0.0 0.00 0.18 0.00 97 1009.3
20260509101630 23 135 0.0 0.0 0.00 0.18 0.00 97 1009.1
20260509101548 23 0 0.0 0.0 0.00 0.23 0.00 96 1009.3
20260509101130 23 135 0.0 0.0 0.00 0.20 0.00 97 1008.8
20260509100628 23 135 0.0 0.0 0.00 0.20 0.00 97 1008.9
20260509100129 23 135 0.0 0.0 0.00 0.23 0.00 97 1008.8
20260509100046 23 0 0.0 0.0 0.00 0.23 0.00 96 1009.0
20260509095629 23 135 0.0 0.0 0.00 0.25 0.00 97 1008.7
20260509095129 23 135 0.0 0.0 0.00 0.28 0.00 97 1008.4
20260509094629 23 135 0.0 0.0 0.00 0.28 0.00 97 1008.6
20260509094548 23 0 0.0 0.0 0.00 0.28 0.00 96 1008.9
20260509094128 23 135 0.0 0.0 0.00 0.28 0.00 97 1008.5
20260509093628 23 135 0.0 0.0 0.00 0.28 0.00 96 1008.7
20260509093131 23 135 0.0 0.0 0.00 0.28 0.00 96 1008.7
20260509093050 23 0 0.0 0.0 0.00 0.28 0.00 96 1009.0
20260509092630 23 135 0.0 0.0 0.00 0.28 0.00 96 1008.6
20260509092144 23 135 0.0 0.0 0.00 0.28 0.00 96 1008.6
20260509091631 23 135 0.0 0.0 0.00 0.28 0.00 96 1008.6
20260509091555 23 0 0.0 0.0 0.00 0.28 0.00 96 1008.9
20260509091130 23 135 0.0 0.0 0.00 0.28 0.00 96 1008.7
20260509090628 23 135 0.0 0.0 0.00 0.28 0.00 96 1008.6
20260509090130 23 135 0.0 0.0 0.00 0.28 0.00 97 1008.6
20260509090101 23 0 0.0 0.0 0.00 0.28 0.00 96 1008.9
20260509085630 23 135 0.0 0.0 0.00 0.28 0.00 97 1008.7
20260509085129 23 135 0.0 0.0 0.00 0.28 0.00 97 1008.6
20260509084629 23 135 0.0 0.0 0.00 0.28 0.00 97 1008.6
20260509084553 23 0 0.0 0.0 0.00 0.28 0.00 96 1008.9
20260509084129 23 159 0.0 0.0 0.00 0.28 0.00 96 1008.4
20260509083628 23 159 0.0 3.2 0.00 0.28 0.00 96 1008.3
20260509083131 23 159 0.0 3.2 0.00 0.28 0.00 96 1008.4
20260509083054 23 0 0.0 3.2 0.00 0.28 0.00 96 1008.8
20260509082630 23 299 0.0 0.0 0.00 0.28 0.00 96 1008.3
20260509082354 23 299 0.0 1.6 0.00 0.28 0.00 96 1008.2
20260509081614 23 275 0.0 8.0 0.00 0.28 0.00 96 1008.2
20260509081556 23 275 0.0 8.0 0.00 0.28 0.00 96 1008.4
20260509081547 23 0 0.0 8.0 0.00 0.28 0.00 96 1008.5
20260509080607 24 93 0.0 0.0 0.00 0.28 0.00 96 1008.3
20260509080105 23 176 0.0 1.6 0.00 0.28 0.00 96 1008.4
20260509075607 23 176 0.0 1.6 0.00 0.28 0.00 96 1008.8
20260509075106 23 254 0.0 0.0 0.00 0.28 0.00 96 1008.9
20260509074607 23 254 0.0 0.0 0.00 0.28 0.00 96 1009.0
20260509074551 23 0 0.0 0.0 0.00 0.28 0.00 96 1009.3
20260509074046 23 254 0.0 0.0 0.00 0.28 0.00 96 1009.3
20260509073810 23 254 0.0 1.6 0.00 0.28 0.00 97 1009.3
20260509073102 23 0 0.0 0.0 0.00 0.28 0.00 96 1009.4
20260509073046 23 254 0.0 1.6 0.00 0.28 0.00 96 1009.1
20260509072543 23 52 0.0 0.0 0.00 0.28 0.00 96 1009.4
20260509072044 23 52 0.0 0.0 0.00 0.28 0.00 96 1009.7
20260509071808 23 52 0.0 0.0 0.00 0.28 0.00 96 1009.5
20260509071551 23 0 0.0 0.0 0.00 0.28 0.00 96 1009.8
20260509071034 23 52 0.0 1.6 0.00 0.28 0.00 96 1009.5
20260509070532 23 52 0.0 1.6 0.00 0.28 0.00 96 1009.6
20260509070055 23 0 0.0 3.2 0.00 0.28 0.00 96 1009.8
20260509070031 23 339 0.0 1.6 0.00 0.28 0.00 96 1009.5
20260509065521 23 167 0.0 6.4 0.00 0.28 0.00 96 1009.5
20260509065007 23 167 0.0 6.4 0.00 0.28 0.00 96 1009.3
20260509064548 23 0 0.0 3.2 0.00 0.43 0.00 96 1009.6
20260509064506 23 99 0.0 1.6 0.00 0.28 0.00 96 1009.2
20260509064005 23 316 0.0 0.0 0.00 0.28 0.00 96 1009.3
20260509063504 23 316 0.0 0.0 0.00 0.28 0.00 96 1009.6
20260509063050 23 0 0.0 3.2 0.00 0.43 0.00 96 1009.8
20260509063003 23 316 0.0 3.2 0.00 0.28 0.00 96 1009.6
20260509062502 23 316 0.0 3.2 0.00 0.30 0.00 96 1009.1
20260509062227 23 269 0.0 1.6 0.00 0.33 0.00 96 1008.9
20260509061546 23 235 0.0 3.2 0.00 0.43 0.00 96 1009.2
20260509061500 23 25 0.0 1.6 0.00 0.33 0.00 96 1008.9
20260509061001 23 334 0.0 1.6 0.00 0.36 0.00 96 1009.2
20260509060459 23 149 0.0 0.0 0.00 0.41 0.00 96 1009.4
20260509060054 23 0 0.0 0.0 0.00 0.43 0.00 95 1009.7
20260509055942 23 149 0.0 0.0 0.00 0.43 0.00 96 1009.5
20260509055434 23 149 0.0 0.0 0.00 0.46 0.00 96 1009.4
20260509054934 23 149 0.0 0.0 0.03 0.48 0.00 96 1009.4
20260509054553 23 0 0.0 0.0 0.03 0.53 0.00 95 1009.6
20260509054434 23 149 0.0 0.0 0.03 0.48 0.00 96 1009.3
20260509053933 23 149 0.0 1.6 0.05 0.48 0.00 96 1009.3
20260509053432 24 149 0.0 1.6 0.05 0.48 0.00 95 1009.5
20260509053048 23 0 0.0 0.0 0.05 0.53 0.00 95 1009.9
20260509052931 24 37 0.0 0.0 0.05 0.51 0.00 95 1009.7
20260509052430 24 37 0.0 6.4 0.05 0.51 0.00 95 1009.8
20260509051930 24 37 0.0 6.4 0.05 0.51 0.00 95 1009.6
20260509051547 23 0 0.0 9.7 0.05 0.53 0.00 94 1009.9
20260509051429 24 30 0.0 9.7 0.05 0.51 0.00 95 1009.6
20260509050929 24 307 1.6 9.7 0.05 0.53 0.00 94 1009.3
20260509050429 24 352 1.6 6.4 0.05 0.53 0.00 94 1009.6
20260509050057 24 0 0.0 0.0 0.05 0.53 0.00 93 1010.5
20260509045928 24 44 0.0 0.0 0.05 0.48 0.53 93 1010.3
20260509045430 25 44 0.0 1.6 0.05 0.48 0.53 90 1010.7
20260509044931 25 44 0.0 1.6 0.03 0.48 0.51 89 1010.7
20260509044550 25 0 0.0 6.4 0.03 0.53 0.51 87 1010.7
20260509044430 25 264 0.0 0.0 0.03 0.48 0.51 87 1010.4
20260509043930 26 264 0.0 8.0 0.00 0.48 0.48 86 1010.4
20260509043429 26 264 1.6 8.0 0.00 0.48 0.48 85 1010.3
20260509043049 25 0 0.0 0.0 0.00 0.51 0.48 85 1010.6
20260509042929 26 61 0.0 0.0 0.00 0.48 0.48 85 1010.5
20260509042650 26 61 0.0 4.8 0.00 0.48 0.48 85 1010.5
20260509041929 26 274 0.0 4.8 0.00 0.48 0.48 85 1010.5
20260509041720 26 45 0.0 4.8 0.00 0.48 0.48 85 1010.4
20260509041552 26 0 0.0 6.4 0.00 0.51 0.48 84 1010.8
20260509040929 26 193 0.0 4.8 0.00 0.48 0.48 84 1010.0
20260509040429 26 187 0.0 1.6 0.00 0.48 0.48 84 1009.8
20260509040051 26 0 0.0 9.7 0.00 0.51 0.48 83 1010.1
20260509035928 26 357 0.0 8.0 0.00 0.51 0.48 83 1009.8
20260509035429 26 47 1.6 8.0 0.00 0.51 0.48 83 1009.5
20260509034929 26 221 0.0 8.0 0.00 0.51 0.48 83 1009.5
20260509034547 26 0 1.6 9.7 0.00 0.51 0.48 82 1009.8
20260509034429 26 143 1.6 8.0 0.00 0.51 0.48 82 1009.6
20260509033929 27 150 0.0 8.0 0.00 0.51 0.48 82 1009.7
20260509033429 27 347 0.0 8.0 0.00 0.51 0.48 82 1009.6
20260509033105 27 0 0.0 9.7 0.00 0.51 0.48 81 1010.0
20260509032928 27 341 0.0 4.8 0.00 0.51 0.48 81 1009.7
20260509032431 27 278 0.0 8.0 0.00 0.51 0.48 81 1009.3
20260509032155 27 199 0.0 8.0 0.00 0.51 0.48 81 1009.0
20260509031547 27 179 0.0 9.7 0.00 0.51 0.48 80 1009.1
20260509031430 27 96 0.0 11.3 0.00 0.51 0.48 80 1008.7
20260509031223 27 354 3.2 11.3 0.00 0.51 0.48 80 1008.7
20260509030650 27 142 3.2 8.0 0.00 0.51 0.48 80 1008.7
20260509030053 27 146 0.0 8.0 0.00 0.51 0.48 79 1009.0
20260509025928 27 257 0.0 4.8 0.00 0.51 0.48 80 1008.8
20260509025429 27 323 0.0 4.8 0.00 0.51 0.48 79 1008.8
20260509024929 28 328 0.0 8.0 0.00 0.51 0.48 79 1008.7
20260509024557 27 301 0.0 11.3 0.00 0.51 0.48 78 1008.9
20260509024445 28 110 0.0 11.3 0.00 0.51 0.48 78 1008.8
20260509024436 28 262 0.0 11.3 0.00 0.51 0.48 78 1008.8
20260509023429 28 154 0.0 6.4 0.00 0.51 0.48 78 1008.7
20260509023154 28 112 1.6 6.4 0.00 0.51 0.48 77 1008.7
20260509023051 28 0 0.0 6.4 0.00 0.51 0.48 77 1009.0
20260509022431 28 176 0.0 4.8 0.00 0.51 0.48 77 1008.6
20260509021931 28 356 0.0 0.0 0.00 0.51 0.48 77 1008.6
20260509021548 28 0 0.0 1.6 0.00 0.51 0.48 76 1008.8
20260509021431 28 252 0.0 1.6 0.00 0.51 0.48 76 1008.6
20260509020931 28 252 0.0 1.6 0.00 0.51 0.48 76 1008.3
20260509020720 29 237 0.0 9.7 0.00 0.51 0.48 75 1008.3
20260509020047 28 0 0.0 9.7 0.00 0.51 0.48 75 1008.7
20260509015930 29 248 1.6 9.7 0.00 0.51 0.48 75 1008.4
20260509015656 29 356 1.6 11.3 0.00 0.51 0.48 75 1008.5
20260509014928 29 34 3.2 11.3 0.00 0.51 0.48 74 1008.4
20260509014650 29 182 0.0 8.0 0.00 0.51 0.48 74 1008.1
20260509014550 29 278 0.0 6.4 0.00 0.51 0.48 74 1008.4
20260509013922 30 41 0.0 6.4 0.00 0.51 0.48 75 1007.7
20260509013710 30 26 0.0 8.0 0.00 0.51 0.48 74 1007.7
20260509013055 29 0 0.0 11.3 0.00 0.51 0.48 74 1008.0
20260509012913 30 104 1.6 12.9 0.00 0.51 0.48 74 1007.6
20260509012638 30 66 0.0 12.9 0.00 0.51 0.48 74 1007.5
20260509011913 30 277 0.0 11.3 0.00 0.51 0.48 74 1007.4
20260509011601 29 0 0.0 11.3 0.00 0.51 0.48 74 1007.6
20260509011411 30 41 1.6 11.3 0.00 0.51 0.48 74 1007.4
20260509010911 30 215 1.6 9.7 0.00 0.51 0.48 74 1007.1
20260509010409 30 250 1.6 9.7 0.00 0.51 0.48 75 1007.0
20260509010047 30 0 0.0 9.7 0.00 0.51 0.48 74 1007.2
20260509005905 30 191 1.6 8.0 0.00 0.51 0.48 75 1006.9
20260509005401 30 288 0.0 8.0 0.00 0.51 0.48 75 1006.8
20260509005124 30 334 0.0 8.0 0.00 0.51 0.48 75 1006.9
20260509004555 30 324 1.6 8.0 0.00 0.51 0.48 75 1007.3
20260509004401 30 285 1.6 8.0 0.00 0.51 0.48 76 1007.2
20260509003901 30 293 0.0 4.8 0.00 0.51 0.48 77 1007.3
20260509003402 30 233 0.0 4.8 0.00 0.51 0.48 77 1007.3
20260509003150 30 131 0.0 8.0 0.00 0.51 0.48 77 1007.1
20260509003051 30 0 0.0 9.7 0.00 0.51 0.48 76 1007.5
20260509002401 30 131 0.0 8.0 0.00 0.51 0.48 76 1007.0
20260509002124 30 337 0.0 8.0 0.00 0.51 0.48 75 1007.3
20260509001553 30 273 0.0 8.0 0.00 0.51 0.48 74 1007.5
20260509001402 30 149 1.6 8.0 0.00 0.51 0.48 74 1007.2
20260509000902 31 221 0.0 6.4 0.00 0.51 0.48 73 1007.0
20260509000627 31 341 0.0 6.4 0.00 0.51 0.48 74 1007.1
20260509000050 30 0 0.0 6.4 0.00 0.51 0.48 73 1007.3
20260508235902 30 336 0.0 6.4 0.00 0.51 0.48 73 1007.0
20260508235402 31 305 0.0 1.6 0.00 0.51 0.48 73 1007.0
20260508234903 31 217 0.0 3.2 0.00 0.51 0.48 73 1007.1
20260508234547 31 0 0.0 3.2 0.00 0.51 0.48 72 1007.4
20260508234402 31 125 0.0 3.2 0.00 0.51 0.48 72 1007.1
20260508233903 31 142 0.0 0.0 0.00 0.51 0.48 72 1007.2
20260508233403 31 142 0.0 0.0 0.00 0.51 0.48 72 1007.3
20260508233049 30 0 0.0 0.0 0.00 0.51 0.48 71 1007.6
20260508232900 31 142 0.0 1.6 0.00 0.51 0.48 72 1007.3
20260508232400 31 142 0.0 1.6 0.00 0.51 0.48 72 1007.4
20260508231901 31 303 0.0 1.6 0.00 0.51 0.48 72 1007.4
20260508231631 31 328 0.0 1.6 0.00 0.51 0.48 72 1007.3
20260508231553 30 0 0.0 1.6 0.00 0.51 0.48 72 1007.5
20260508231126 30 302 0.0 1.6 0.00 0.51 0.48 72 1007.3
20260508230624 30 302 0.0 1.6 0.00 0.51 0.48 72 1007.3
20260508230050 30 0 0.0 1.6 0.00 0.51 0.48 72 1007.6
20260508225901 30 6 0.0 1.6 0.00 0.51 0.48 73 1007.3
20260508225401 30 95 0.0 3.2 0.00 0.51 0.48 73 1007.2
20260508224901 31 354 0.0 3.2 0.00 0.51 0.48 72 1007.2
20260508224609 30 314 0.0 0.0 0.00 0.51 0.48 72 1007.4
20260508224401 31 32 0.0 1.6 0.00 0.51 0.48 72 1007.3
20260508223901 31 252 0.0 1.6 0.00 0.51 0.48 72 1007.3
20260508223401 31 252 0.0 6.4 0.00 0.51 0.48 72 1007.3
20260508223127 31 8 0.0 6.4 0.00 0.51 0.48 71 1007.3
20260508223052 30 0 0.0 6.4 0.00 0.51 0.48 71 1007.5
20260508222400 31 26 0.0 6.4 0.00 0.51 0.48 72 1007.6
20260508221902 31 259 0.0 4.8 0.00 0.51 0.48 72 1007.5
20260508221602 30 0 0.0 3.2 0.00 0.51 0.48 71 1008.0
20260508221415 31 176 0.0 4.8 0.00 0.51 0.48 72 1007.6
20260508220902 31 96 0.0 1.6 0.00 0.51 0.48 71 1007.6
20260508220402 31 199 0.0 1.6 0.00 0.51 0.48 71 1007.8
20260508220049 30 0 0.0 1.6 0.00 0.51 0.48 71 1007.9
20260508215901 31 56 0.0 1.6 0.00 0.51 0.48 71 1007.7
20260508215400 31 56 0.0 1.6 0.00 0.51 0.48 70 1007.8
20260508214901 31 116 0.0 1.6 0.00 0.51 0.48 69 1007.9
20260508214551 31 0 0.0 0.0 0.00 0.51 0.48 70 1008.4
20260508214401 31 295 0.0 0.0 0.00 0.51 0.48 70 1008.2
20260508213901 31 295 0.0 1.6 0.00 0.51 0.48 70 1008.2
20260508213627 31 295 0.0 6.4 0.00 0.51 0.48 69 1008.3
20260508213123 31 199 0.0 6.4 0.00 0.51 0.48 70 1008.4
20260508213049 31 0 0.0 6.4 0.00 0.51 0.48 69 1008.7
20260508212400 31 270 0.0 0.0 0.00 0.51 0.48 69 1008.5
20260508211901 31 270 0.0 0.0 0.00 0.51 0.48 69 1008.8
20260508211553 31 0 0.0 0.0 0.00 0.51 0.48 68 1009.0
20260508211401 31 270 0.0 0.0 0.00 0.51 0.48 69 1008.8
20260508210901 31 270 0.0 0.0 0.00 0.51 0.48 68 1008.8
20260508210402 32 270 0.0 0.0 0.00 0.51 0.48 67 1008.9
20260508210057 31 0 0.0 1.6 0.00 0.51 0.48 66 1009.1
20260508205902 32 270 0.0 1.6 0.00 0.51 0.48 66 1008.8
20260508205625 32 269 0.0 1.6 0.00 0.51 0.48 66 1008.9
20260508204901 32 270 0.0 0.0 0.00 0.51 0.48 69 1008.9
20260508204627 31 270 0.0 3.2 0.00 0.51 0.48 69 1008.8
20260508204547 31 0 0.0 4.8 0.00 0.51 0.48 69 1009.3
20260508203901 31 270 0.0 3.2 0.00 0.51 0.48 70 1009.2
20260508203401 31 15 0.0 0.0 0.00 0.51 0.48 69 1009.3
20260508203127 31 15 0.0 0.0 0.00 0.51 0.48 69 1009.3
20260508203059 31 0 0.0 0.0 0.00 0.51 0.48 69 1009.5
20260508202400 31 15 0.0 0.0 0.00 0.51 0.48 69 1009.4
20260508201901 31 15 0.0 0.0 0.00 0.51 0.48 69 1009.5
20260508201548 31 0 0.0 1.6 0.00 0.51 0.48 70 1009.8
20260508201400 31 290 0.0 0.0 0.00 0.51 0.48 71 1009.5
20260508200901 31 290 0.0 0.0 0.00 0.51 0.48 69 1009.6
20260508200401 31 259 0.0 3.2 0.00 0.51 0.48 70 1009.8
20260508200125 31 259 0.0 3.2 0.00 0.51 0.48 71 1009.9
20260508200105 31 0 0.0 3.2 0.00 0.51 0.48 70 1010.2
20260508195400 31 207 0.0 0.0 0.00 0.51 0.48 70 1010.0
20260508194902 32 221 0.0 0.0 0.00 0.51 0.48 71 1010.1
20260508194551 31 0 0.0 1.6 0.00 0.51 0.48 71 1010.3
20260508194354 31 221 0.0 1.6 0.00 0.51 0.48 74 1010.0
20260508194111 30 221 0.0 3.2 0.00 0.51 0.48 72 1010.2
20260508193344 31 31 0.0 3.2 0.00 0.51 0.48 74 1010.3
20260508193104 30 0 0.0 3.2 0.00 0.51 0.48 71 1010.6
20260508192843 31 90 0.0 0.0 0.00 0.51 0.48 73 1010.3
20260508192344 30 90 0.0 1.6 0.00 0.51 0.48 74 1010.4
20260508191841 30 38 0.0 1.6 0.00 0.51 0.48 75 1010.4
20260508191547 30 0 0.0 0.0 0.00 0.51 0.48 75 1010.7
20260508191341 30 143 0.0 1.6 0.00 0.51 0.48 76 1010.4
20260508190841 30 143 0.0 1.6 0.00 0.51 0.48 77 1010.4
20260508190339 29 122 0.0 0.0 0.00 0.51 0.48 77 1010.5
20260508190050 29 0 0.0 0.0 0.00 0.51 0.48 77 1010.9
20260508185836 30 122 0.0 0.0 0.00 0.51 0.48 76 1010.6
20260508185334 29 122 0.0 0.0 0.00 0.51 0.48 78 1010.8
20260508184830 28 122 0.0 1.6 0.00 0.51 0.48 80 1010.9
20260508184552 28 0 0.0 1.6 0.00 0.51 0.48 80 1011.2
20260508184329 28 122 0.0 1.6 0.00 0.51 0.48 80 1010.9
20260508183829 28 239 0.0 1.6 0.00 0.51 0.48 81 1011.0
20260508183327 28 281 0.0 0.0 0.00 0.51 0.48 81 1011.1
20260508183106 27 0 0.0 0.0 0.00 0.51 0.48 81 1011.4
20260508182827 28 212 0.0 0.0 0.00 0.51 0.48 81 1011.2
20260508182320 28 212 0.0 1.6 0.00 0.51 0.48 82 1011.6
20260508181819 27 86 0.0 1.6 0.00 0.51 0.48 83 1011.3
20260508181608 27 0 0.0 3.2 0.00 0.51 0.48 82 1011.6
20260508181312 27 274 0.0 4.8 0.00 0.51 0.48 84 1011.4
20260508180811 27 228 0.0 4.8 0.00 0.51 0.48 85 1011.4
20260508180310 26 276 0.0 6.4 0.00 0.51 0.48 86 1011.6
20260508180049 26 0 0.0 4.8 0.00 0.51 0.48 88 1011.8
20260508175805 26 276 0.0 6.4 0.00 0.51 0.48 90 1011.7
20260508175306 26 235 0.0 6.4 0.00 0.51 0.48 91 1011.8
20260508175246 25 27 1.6 6.4 0.00 0.51 0.48 93 1011.7
20260508174547 25 0 0.0 1.6 0.00 0.51 0.48 94 1012.0
20260508174303 25 27 0.0 1.6 0.00 0.51 0.48 95 1011.9
20260508173802 24 26 0.0 0.0 0.00 0.51 0.48 95 1011.9
20260508173302 24 26 0.0 0.0 0.00 0.51 0.48 95 1012.1
20260508173047 23 0 0.0 0.0 0.00 0.51 0.48 95 1012.3
20260508172802 24 26 0.0 0.0 0.00 0.51 0.48 96 1012.2
20260508172301 23 26 0.0 0.0 0.00 0.51 0.48 96 1012.4
20260508171800 23 26 0.0 3.2 0.00 0.51 0.48 97 1012.4
20260508171549 23 0 0.0 1.6 0.00 0.51 0.48 96 1012.7
20260508171301 23 26 0.0 3.2 0.00 0.51 0.48 96 1012.5
20260508171024 23 238 0.0 0.0 0.00 0.51 0.48 97 1012.5
20260508170532 23 238 0.0 0.0 0.00 0.51 0.48 97 1012.5
20260508170107 22 238 0.0 1.6 0.00 0.51 0.48 97 1012.7
20260508170050 22 0 0.0 1.6 0.00 0.51 0.48 96 1012.8
20260508165235 22 238 0.0 1.6 0.00 0.51 0.48 97 1012.8
20260508164731 22 197 0.0 0.0 0.00 0.51 0.48 97 1013.0
20260508164713 22 197 0.0 0.0 0.00 0.51 0.48 96 1013.1
20260508164553 22 0 0.0 0.0 0.00 0.51 0.48 96 1013.3
20260508163730 22 197 0.0 0.0 0.00 0.51 0.48 96 1013.1
20260508163229 22 197 0.0 0.0 0.00 0.51 0.48 96 1013.3
20260508163053 22 0 0.0 0.0 0.00 0.51 0.48 95 1013.5
20260508162729 23 197 0.0 0.0 0.00 0.51 0.48 96 1013.1
20260508162510 23 197 0.0 0.0 0.00 0.51 0.48 97 1012.9
20260508161939 23 197 0.0 0.0 0.00 0.51 0.48 97 1013.1
20260508161655 23 197 0.0 0.0 0.00 0.51 0.48 97 1013.0
20260508161550 22 0 0.0 0.0 0.00 0.51 0.48 96 1013.3
20260508161153 23 197 0.0 0.0 0.00 0.51 0.48 97 1013.0
20260508160425 23 197 0.0 0.0 0.00 0.51 0.48 97 1013.2
20260508160053 22 0 0.0 0.0 0.00 0.51 0.48 97 1013.4
20260508155706 23 197 0.0 0.0 0.00 0.51 0.48 97 1013.2
20260508155203 22 197 0.0 0.0 0.00 0.51 0.48 97 1013.3
20260508154701 22 197 0.0 0.0 0.00 0.51 0.48 97 1013.3
20260508154549 22 0 0.0 0.0 0.00 0.51 0.48 97 1013.5
20260508154201 22 197 0.0 0.0 0.00 0.51 0.48 97 1013.4
20260508153701 22 197 0.0 0.0 0.00 0.51 0.48 97 1013.3
20260508153200 22 197 0.0 0.0 0.00 0.51 0.48 97 1013.4
20260508153055 22 0 0.0 0.0 0.00 0.51 0.48 97 1013.7
20260508152701 22 197 0.0 0.0 0.00 0.51 0.48 97 1013.6
20260508152202 22 197 0.0 0.0 0.00 0.51 0.48 97 1013.5
20260508151700 22 197 0.0 0.0 0.00 0.51 0.48 97 1013.6
20260508151550 22 0 0.0 0.0 0.00 0.51 0.48 97 1013.7
20260508151201 22 197 0.0 0.0 0.00 0.51 0.48 97 1013.5
20260508150701 22 197 0.0 0.0 0.00 0.51 0.48 97 1013.6
20260508150201 22 197 0.0 0.0 0.00 0.51 0.48 97 1013.6
20260508150109 21 0 0.0 0.0 0.00 0.51 0.48 97 1013.6
20260508145701 22 197 0.0 0.0 0.00 0.51 0.48 97 1013.4
20260508145201 22 197 0.0 0.0 0.00 0.51 0.48 97 1013.3
20260508144701 21 197 0.0 0.0 0.00 0.51 0.48 97 1013.4
20260508144553 21 0 0.0 0.0 0.00 0.51 0.48 97 1013.7
20260508144203 22 197 0.0 0.0 0.00 0.51 0.48 97 1013.6
20260508143703 22 197 0.0 0.0 0.00 0.51 0.48 97 1013.3
20260508143202 21 197 0.0 0.0 0.00 0.51 0.48 97 1013.2
20260508143052 21 0 0.0 0.0 0.00 0.51 0.48 97 1013.4
20260508142702 21 197 0.0 0.0 0.00 0.51 0.48 97 1013.3
20260508142202 21 197 0.0 0.0 0.00 0.51 0.48 97 1013.3
20260508141922 21 197 0.0 0.0 0.00 0.51 0.48 97 1013.4
20260508141600 21 0 0.0 0.0 0.00 0.51 0.48 97 1013.6
20260508141201 21 197 0.0 0.0 0.00 0.51 0.48 97 1013.4
20260508140702 21 197 0.0 0.0 0.00 0.51 0.48 97 1013.3
20260508140201 21 197 0.0 0.0 0.00 0.51 0.48 97 1013.3
20260508140059 21 0 0.0 0.0 0.00 0.51 0.48 97 1013.3
20260508135927 21 197 0.0 0.0 0.00 0.51 0.48 97 1013.1
20260508135201 21 197 0.0 0.0 0.00 0.51 0.48 97 1013.2
20260508134701 21 197 0.0 0.0 0.00 0.51 0.48 97 1013.2
20260508134548 21 0 0.0 0.0 0.00 0.51 0.48 97 1013.5
20260508134202 21 197 0.0 0.0 0.00 0.51 0.48 97 1013.2
20260508133702 21 197 0.0 0.0 0.00 0.51 0.48 97 1013.3
20260508133202 21 197 0.0 0.0 0.00 0.51 0.48 97 1013.3
20260508133045 21 0 0.0 0.0 0.00 0.51 0.48 97 1013.5
20260508132702 21 197 0.0 0.0 0.00 0.51 0.48 97 1013.5
20260508132202 21 197 0.0 0.0 0.00 0.51 0.48 97 1013.4
20260508131702 21 197 0.0 0.0 0.00 0.51 0.48 97 1013.5
20260508131556 21 0 0.0 0.0 0.00 0.51 0.48 97 1013.6
20260508131202 21 197 0.0 0.0 0.00 0.51 0.48 97 1013.4
20260508130702 21 197 0.0 0.0 0.00 0.51 0.48 97 1013.5
20260508130202 21 197 0.0 0.0 0.00 0.51 0.48 97 1013.6
20260508130047 21 0 0.0 0.0 0.00 0.51 0.48 97 1013.8
20260508125922 21 197 0.0 0.0 0.00 0.51 0.48 97 1013.5
20260508125202 21 197 0.0 0.0 0.00 0.51 0.48 97 1013.5
20260508124701 21 191 0.0 0.0 0.00 0.51 0.48 97 1013.7
20260508124548 20 0 0.0 0.0 0.00 0.51 0.48 97 1013.8
20260508124201 21 191 0.0 0.0 0.00 0.51 0.48 97 1013.6
20260508123950 21 191 0.0 0.0 0.00 0.51 0.48 97 1013.5
20260508123201 21 191 0.0 0.0 0.00 0.51 0.48 97 1013.5
20260508123047 20 0 0.0 0.0 0.00 0.51 0.48 97 1013.6
20260508122919 21 191 0.0 0.0 0.00 0.51 0.48 97 1013.4
20260508122201 21 191 0.0 1.6 0.00 0.51 0.48 97 1013.3
20260508121701 21 191 0.0 1.6 0.00 0.51 0.48 97 1013.2
20260508121550 21 0 0.0 0.0 0.00 0.51 0.48 97 1013.3
20260508121201 21 207 0.0 0.0 0.03 0.51 0.48 97 1013.1
20260508120703 21 207 0.0 0.0 0.05 0.51 0.48 97 1012.9
20260508120202 21 288 0.0 1.6 0.08 0.51 0.48 97 1013.0
20260508120053 21 0 0.0 1.6 0.08 0.51 0.48 97 1013.2
20260508115702 21 288 0.0 1.6 0.10 0.43 0.48 97 1012.9
20260508115425 21 227 0.0 0.0 0.10 0.43 0.48 97 1012.8
20260508114702 21 227 0.0 0.0 0.10 0.43 0.48 97 1012.7
20260508114553 21 0 0.0 0.0 0.10 0.51 0.48 97 1013.0
20260508114202 21 227 0.0 0.0 0.10 0.43 0.48 97 1012.7
20260508113703 21 227 0.0 0.0 0.10 0.43 0.48 97 1012.9